Weather History for KDVT - February, 2013

Change the Weather History Date:

Friday, February 8, 2013

  Actual Average Record
Temperature  
Mean Temperature 56 °F -  
Max Temperature 62 °F 64 °F 84 °F (2006)
Min Temperature 50 °F 44 °F 41 °F (2001)
Degree Days  
Heating Degree Days 9    
Growing Degree Days 6 (Base 50)    
Moisture  
Dew Point 32 °F    
Average Humidity 42    
Maximum Humidity 68    
Minimum Humidity 23    
Precipitation  
Precipitation 0.00 in - - ()
Sea Level Pressure  
Sea Level Pressure 29.80 in    
Wind  
Wind Speed 7 mph (SSW)    
Max Wind Speed 20 mph    
Max Gust Speed 25 mph    
Visibility 10 miles    
Events      
Averages and records for this station are not official NWS values.
T = Trace of Precipitation, MM = Missing Value Source: NWS Daily Summary

Daily Weather History Graph

Daily Weather History Graph

Search for Another Location

Airport or City:

Trip Planner

Search our weather history database for the weather conditions in past years. The results will help you decide how hot, cold, wet, or windy it might be!

Date:

Astronomy

Feb. 08, 2013 Rise Set
Actual Time 7:18 AM MST 6:06 PM MST
Civil Twilight 6:53 AM MST 6:32 PM MST
Nautical Twilight 6:23 AM MST 7:01 PM MST
Astronomical Twilight 5:54 AM MST 7:30 PM MST
Moon 5:48 AM MST (2/8) 4:45 PM MST (2/8)
Length of Visible Light 11h 39m
Length of Day
10h 47m
Waning Crescent, 3% of the Moon is Illuminated
Feb 8
Waning Crescent
Feb 10
New
Feb 17
First Quarter
Feb 25
Full
Mar 4
Last Quarter

Hourly Weather History & Observations

Time (MST) Temp. Dew Point Humidity Pressure Visibility Wind Dir Wind Speed Gust Speed Precip Events Conditions
12:53 AM 54.0 °F 39.0 °F 57% 29.87 in 10.0 mi Calm Calm - N/A   Clear
1:53 AM 53.1 °F 39.0 °F 59% 29.86 in 10.0 mi ESE 3.5 mph - N/A   Clear
2:53 AM 55.0 °F 37.9 °F 53% 29.84 in 10.0 mi East 4.6 mph - N/A   Clear
3:53 AM 51.1 °F 39.9 °F 66% 29.82 in 10.0 mi ENE 4.6 mph - N/A   Clear
4:53 AM 51.1 °F 39.9 °F 66% 29.81 in 10.0 mi East 8.1 mph - N/A   Clear
5:53 AM 50.0 °F 39.9 °F 68% 29.80 in 10.0 mi East 6.9 mph - N/A   Clear
6:53 AM 51.1 °F 39.0 °F 63% 29.81 in 10.0 mi SE 6.9 mph - N/A   Clear
7:53 AM 53.1 °F 39.0 °F 59% 29.82 in 10.0 mi SE 6.9 mph - N/A   Clear
8:53 AM 54.0 °F 39.0 °F 57% 29.85 in 10.0 mi SSE 4.6 mph - N/A   Clear
9:53 AM 57.9 °F 36.0 °F 44% 29.86 in 10.0 mi South 4.6 mph - N/A   Clear
10:53 AM 60.1 °F 35.1 °F 39% 29.86 in 10.0 mi SW 10.4 mph - N/A   Clear
11:53 AM 61.0 °F 34.0 °F 36% 29.86 in 10.0 mi SW 15.0 mph - N/A   Clear
12:53 PM 61.0 °F 35.1 °F 38% 29.83 in 10.0 mi SSW 10.4 mph - N/A   Clear
1:53 PM 62.1 °F 32.0 °F 32% 29.80 in 10.0 mi SW 15.0 mph 21.9 mph N/A   Clear
2:53 PM 62.1 °F 27.0 °F 26% 29.78 in 10.0 mi SSW 19.6 mph 25.3 mph N/A   Clear
3:53 PM 61.0 °F 25.0 °F 25% 29.77 in 10.0 mi WSW 9.2 mph - N/A   Clear
4:53 PM 61.0 °F 23.0 °F 23% 29.76 in 10.0 mi SW 12.7 mph - N/A   Clear
5:53 PM 59.0 °F 23.0 °F 25% 29.75 in 10.0 mi SW 12.7 mph - N/A   Clear
6:53 PM 57.0 °F 24.1 °F 28% 29.74 in 10.0 mi WSW 15.0 mph - N/A   Clear
7:53 PM 55.9 °F 21.0 °F 26% 29.75 in 10.0 mi West 12.7 mph - N/A   Scattered Clouds
8:53 PM 54.0 °F 21.0 °F 28% 29.75 in 10.0 mi WNW 8.1 mph - N/A   Overcast
9:53 PM 54.0 °F 21.9 °F 29% 29.75 in 10.0 mi NW 6.9 mph - N/A   Overcast
10:53 PM 53.1 °F 24.1 °F 32% 29.75 in 10.0 mi Calm Calm - N/A   Overcast
11:53 PM 53.1 °F 25.0 °F 34% 29.75 in 10.0 mi West 9.2 mph - N/A   Overcast